Главная страница
METAR-TAF:

METAR-TAF

Аэропорты :

Grant County Airport

Петербург, Западная Виргиния, США

широта: 38-59N, долгота: 079-08W, высота над уровнем моря: 293 м

Текущие метеонаблюдения

Эта сводка был подготовлена 21 минут назад, в 03:35 UTC
Штиль
Температура 16°C
Влажность 100%
Давление 1026 hPa
Видимость: 16.1 км
Сплошная облачность на высоте 2200 фута

METAR: KW99 250335Z AUTO 00000KT 10SM OVC022 16/16 A3031 RMK AO2 T01620160

Время: 23:56 (03:56 UTC)


TAF: отсутствует

Метеонаблюдения и прогнозы для более 4000 аэропортов (сводки METAR и TAF).

Имеющиеся станции представлены на карте желтыми и красными точками.

Чтобы увидеть название станции, наведите на нее мышь.

Затем щелкните, чтобы увидеть метеонаблюдения и метеопрогнозы.

Управление картой: чтобы увеличить масштаб, щелкните зеленые кнопки с черным крестиком; чтобы уменьшить масштаб, щелкните зеленую кнопку с тире; для просмотра соседних карт щелкайте зеленые стрелки.


METAR-TAF: